User: anonymous   Login
Location: Unspecified
(0.0000°N, 0.0000°E)
Time: 00:12:27
(UTC+00:00)
Language:

Aussat K2 - Orbit

View from above orbital plane
View from above orbital plane
View from above satellite
View from above satellite

Ground track
Ground track

The orbit data is extracted from the following two-line orbital elements,

1 16275U 85109C   14330.95711375  .00000102  00000-0  00000+0 0  5452
2 16275 014.7651 018.7105 0005960 191.8731 231.4405 00.99943665 95902
Epoch (UTC): 26 November 2014 22:58:14
Eccentricity: 0.0005960
inclination: 14.7651°
perigee height: 35853 km
apogee height: 35903 km
right ascension of ascending node: 18.7105°
argument of perigee: 191.8731°
revolutions per day: 0.99943665
mean anomaly at epoch: 231.4405°
orbit number at epoch: 9590

The dashed part of the orbit path shows where the satellite is in the earth's shadow,  

DLR